Regional Weather Roundup
Issued by NWS

Home | Current Version | Previous Version | Text Only | Print | Product List | Glossary On
Versions: 1 2 3 4 5 6 7 8 9 10 11 12 13 14 15 16 17 18 19 20 21 22 23 24 25 26 27 28 29 30 31 32 33 34 35 36 37 38 39 40 41 42 43 44 45 46 47 48 49 50
000
ASUS42 KFFC 041203
RWRGA
WEATHER ROUNDUP FOR GEORGIA
NATIONAL WEATHER SERVICE PEACHTREE CITY GA
700 AM EST WED MAR 04 2015

NOTE: "FAIR" INDICATES FEW OR NO CLOUDS BELOW 12,000 FEET WITH NO
SIGNIFICANT WEATHER AND/OR OBSTRUCTIONS TO VISIBILITY.

* = USE WITH CAUTION. THE STATIONS MARKED WITH AN ASTERISK MAY NOT
REPORT WEATHER SUCH AS PRECIPITATION, FOG, OR THUNDER AND ARE NOT
QUALITY CONTROLLED BY NWS.

THE REMARK "TC" DENOTES TEMPERATURE READING IN DEGREES CELSIUS.

GAZ001>058-041300-
NORTH GEORGIA

CITY           SKY/WX    TMP DP  RH WIND       PRES   REMARKS
ATLANTA        FOG       55  55 100 SW8       30.04R VSB 1/8
6HR MIN TEMP:  50; 6HR MAX TEMP:  56;

ATHENS         FOG       47  47 100 CALM      30.05S VSB 1/4
6HR MIN TEMP:  46; 6HR MAX TEMP:  47;

CHAMBLEE       FOG       53  53 100 CALM      30.05R VSB 1/4
6HR MIN TEMP:  47; 6HR MAX TEMP:  54;

PEACHTREE CITY FOG       52  51  97 CALM      30.05F VSB 1/4
6HR MIN TEMP:  49; 6HR MAX TEMP:  53;

ROME           CLOUDY    53  53 100 SE5       30.00S FOG
6HR MIN TEMP:  51; 6HR MAX TEMP:  53;

WEST ATLANTA   FOG       54  53  97 CALM      30.04R VSB 1/2
6HR MIN TEMP:  49; 6HR MAX TEMP:  54;

GAINESVILLE    FOG       49  49 100 W3        30.06R VSB 1/4
6HR MIN TEMP:  45; 6HR MAX TEMP:  49;

CARTERSVILLE   MOCLDY    53  52  96 N3        30.03R FOG
6HR MIN TEMP:  50; 6HR MAX TEMP:  55;



CITY           SKY/WX    TMP DP  RH WIND       PRES   REMARKS
DALTON*        CLOUDY    55  55 100 SE6       30.00F FOG
LAWRENCEVILLE* FOG       48  45  87 CALM      30.04  VSB 1/4
MARIETTA       DRZL/FOG  56  56 100 S6        30.04S VSB 1/4
KENNESAW*      FOG       52  50  93 CALM      30.04  VSB 1/2
$$

GAZ059>098-102>109-041300-
CENTRAL GEORGIA

CITY           SKY/WX    TMP DP  RH WIND       PRES   REMARKS
AUGUSTA-BUSH   FOG       51  51 100 CALM      30.07F VSB 1/4
6HR MIN TEMP:  50; 6HR MAX TEMP:  51;

AUGUSTA-DANIEL FOG       53  51  93 CALM      30.08R VSB 1/2
6HR MIN TEMP:  52; 6HR MAX TEMP:  53;

COLUMBUS       CLOUDY    60  58  92 SW7       30.07S
6HR MIN TEMP:  58; 6HR MAX TEMP:  65;

MACON          FOG       54  54 100 CALM      30.07S VSB 1/4
6HR MIN TEMP:  52; 6HR MAX TEMP:  57;

ROBINS AFB     FOG       55  55 100 CALM      30.07R VSB 1/2


CITY           SKY/WX    TMP DP  RH WIND       PRES   REMARKS
LAGRANGE*      CLOUDY    64  63  97 S7        30.05S
SYLVANIA*      CLOUDY    62  62 100 SW3       30.09S FOG
MILLEDGEVILLE* FOG       52  52 100 CALM      30.08R VSB 3/4
$$

GAZ099>101-110>166-041300-
SOUTH GEORGIA

CITY           SKY/WX    TMP DP  RH WIND       PRES   REMARKS
SAVANNAH       PTCLDY    62  60  93 S7        30.11R
6HR MIN TEMP:  61; 6HR MAX TEMP:  65;

VALDOSTA       PTCLDY    57  56  96 CALM      30.12R FOG
6HR MIN TEMP:  57; 6HR MAX TEMP:  63;

ALMA           FOG       59  58  96 S5        30.10S VSB 3/4
6HR MIN TEMP:  58; 6HR MAX TEMP:  64;

ST SIMONS      FOG       57  57 100 S6        30.13R VSB 1/4
6HR MIN TEMP:  57; 6HR MAX TEMP:  64;

FT STEWART     MOCLDY    63  62  96 S3        30.09R
ALBANY         CLOUDY    61  61 100 SW7       30.11S FOG
HUNTER AFB     PTCLDY    64  64 100 S6        30.09S
MOODY AFB      MOCLDY    61  60  95 CALM      30.11R
BRUNSWICK      CLEAR     63  61  94 CALM      30.13S


CITY           SKY/WX    TMP DP  RH WIND       PRES   REMARKS
BAINBRIDGE*    FOG       63  63 100 S5        30.10S VSB 3/4
MOULTRIE*      FOG       63  63 100 S3        30.12R VSB 3/4
VIDALIA*       MOCLDY    63  63 100 S5        30.10R FOG
WAYCROSS*      CLEAR     64  64 100 S5        30.12R FOG
DOUGLAS*       PTCLDY    64  63  94 SW6       30.12S
$$


USA.gov is the U.S. government's official web portal to all federal, state and local government web resources and services.